{"data":{"norad_id":64277,"epoch":"2026-05-25T05:36:14.652288Z","epoch_age_seconds":54809,"freshness":"FRESH","line1":"1 64277U 25120X   26145.23350292  .00015347  00000+0  52904-3 0  9992","line2":"2 64277  53.1570 121.2703 0001316  80.1127 280.0023 15.30210596 55574","mean_motion":15.30210596,"eccentricity":0.0001316,"inclination_deg":53.157,"raan_deg":121.2703,"arg_perigee_deg":80.1127,"mean_anomaly_deg":280.0023,"bstar":0.00052904,"rev_number":5557,"period_min":94.104694070489,"perigee_km":474.281534887,"apogee_km":476.08532882466,"semimajor_km":6853.3204318558,"source":"CELESTRAK","updated_at":"2026-05-25T13:38:20.362593Z"}}